Back to catalog

FENGYUN 1C DEB

LostSSO
NORAD 30992·DEBRIS·🇨🇳 China

Launched May 10, 1999 from Taiyuan Satellite Launch Center

Loading…

Next Passes (next 24 hours)

TLE

StaleSource: Space-Track

Epoch: Jun 27, 2007, 21:50 UTC

1 30992U 99025BCJ 07178.91040632 +.00005813 +00000-0 +38522-2 0  9995
2 30992 099.3813 172.7135 0043609 049.9749 357.5594 14.01363265015429

Track FENGYUN 1C DEB in real time with AllMySat

Download on the App Store